Frederick, MD

5:37 AM EST on December 13, 2019 (GMT -0500)
Frederick Municipal

Weather History for KFDK - November, 2019

Change the Weather History Date:

Wednesday, November 13, 2019

  Actual Average (WUND) Record (WUND)
Temperature  
Mean Temperature 29 °F -  
Max Temperature 35 °F - - (-1)
Min Temperature 23 °F - - (-1)
Degree Days  
Heating Degree Days 36    
Moisture  
Dew Point 15 °F    
Average Humidity 62    
Maximum Humidity 86    
Minimum Humidity 38    
Precipitation  
Precipitation 0.00 in - - ()
Sea Level Pressure  
Sea Level Pressure 30.38 in    
Wind  
Wind Speed 4 mph (WNW)    
Max Wind Speed 10 mph    
Max Gust Speed 18 mph    
Visibility 10 miles    
Events      
Averages and records for this station are not official NWS values.
T = Trace of Precipitation, MM = Missing Value Source: NWS Daily Summary

Daily Weather History Graph

Daily Weather History Graph

Search for Another Location

Airport or City:

Astronomy

Nov. 13, 2019 Rise Set
Actual Time 6:50 AM EST 4:56 PM EST
Civil Twilight 6:22 AM EST 5:24 PM EST
Nautical Twilight 5:49 AM EST 5:57 PM EST
Astronomical Twilight 5:18 AM EST 6:28 PM EST
Moon 5:58 PM EST 7:41 AM EST
Length of Visible Light 11h 02m
Length of Day
10h 05m
Full, 99% of the Moon is Illuminated
Nov 13
Full
Nov 19
Last Quarter
Nov 26
New
Dec 4
First Quarter
Dec 12
Full

Hourly Weather History & Observations

Time (EST) Temp. Windchill Dew Point Humidity Pressure Visibility Wind Dir Wind Speed Gust Speed Precip Events Conditions
12:00 AM 28.4 °F 22.2 °F 12.2 °F 51% 30.29 in 10.0 mi NNW 5.8 mph - N/A   Clear
12:20 AM 28.4 °F 21.2 °F 12.2 °F 51% 30.30 in 10.0 mi NW 6.9 mph - N/A   Clear
12:40 AM 26.6 °F 21.2 °F 14.0 °F 59% 30.30 in 10.0 mi WNW 4.6 mph - N/A   Clear
1:00 AM 26.6 °F 22.6 °F 12.2 °F 55% 30.31 in 10.0 mi NW 3.5 mph - N/A   Clear
1:20 AM 26.6 °F 21.2 °F 12.2 °F 55% 30.32 in 10.0 mi NW 4.6 mph - N/A   Clear
1:40 AM 26.6 °F 21.2 °F 12.2 °F 55% 30.32 in 10.0 mi NW 4.6 mph - N/A   Clear
2:00 AM 26.6 °F 21.2 °F 12.2 °F 55% 30.32 in 10.0 mi NW 4.6 mph - N/A   Clear
2:20 AM 26.6 °F 22.6 °F 14.0 °F 59% 30.32 in 10.0 mi NW 3.5 mph - N/A   Clear
2:40 AM 26.6 °F 21.2 °F 14.0 °F 59% 30.33 in 10.0 mi NNW 4.6 mph - N/A   Clear
3:00 AM 24.8 °F 19.1 °F 14.0 °F 64% 30.33 in 10.0 mi NW 4.6 mph - N/A   Clear
3:20 AM 24.8 °F 17.9 °F 14.0 °F 64% 30.34 in 10.0 mi NW 5.8 mph - N/A   Clear
3:40 AM 23.0 °F 15.8 °F 14.0 °F 68% 30.34 in 10.0 mi WNW 5.8 mph - N/A   Clear
4:00 AM 24.8 °F 20.5 °F 14.0 °F 64% 30.34 in 10.0 mi WNW 3.5 mph - N/A   Clear
4:20 AM 24.8 °F 19.1 °F 14.0 °F 64% 30.35 in 10.0 mi West 4.6 mph - N/A   Clear
5:00 AM 23.0 °F 18.4 °F 14.0 °F 68% 30.36 in 10.0 mi West 3.5 mph - N/A   Clear
5:20 AM 23.0 °F 18.4 °F 14.0 °F 68% 30.37 in 10.0 mi West 3.5 mph - N/A   Clear
5:40 AM 23.0 °F 18.4 °F 15.8 °F 74% 30.37 in 10.0 mi West 3.5 mph - N/A   Clear
6:00 AM 23.0 °F - 15.8 °F 74% 30.38 in 10.0 mi Calm Calm - N/A   Clear
6:20 AM 23.0 °F 18.4 °F 14.0 °F 68% 30.38 in 10.0 mi West 3.5 mph - N/A   Clear
6:40 AM 23.0 °F 13.1 °F 15.8 °F 74% 30.39 in 10.0 mi West 9.2 mph - N/A   Clear
7:00 AM 23.0 °F 15.8 °F 15.8 °F 74% 30.40 in 10.0 mi West 5.8 mph - N/A   Clear
7:47 AM 24.8 °F 14.6 °F 15.8 °F 69% 30.42 in 10.0 mi WNW 10.4 mph - N/A   Clear
8:47 AM 26.6 °F 16.8 °F 15.8 °F 64% 30.43 in 10.0 mi WNW 10.4 mph - N/A   Clear
9:47 AM 30.2 °F 21.3 °F 14.0 °F 51% 30.45 in 10.0 mi WNW 10.4 mph 18.4 mph N/A   Clear
10:47 AM 32.0 °F 23.6 °F 14.0 °F 48% 30.44 in 10.0 mi NW 10.4 mph 18.4 mph N/A   Scattered Clouds
11:47 AM 33.8 °F 25.8 °F 14.0 °F 44% 30.43 in 10.0 mi NW 10.4 mph - N/A   Scattered Clouds
12:47 PM 35.6 °F 31.7 °F 12.2 °F 38% 30.41 in 10.0 mi NNW 4.6 mph - N/A   Scattered Clouds
1:47 PM 35.6 °F - 14.0 °F 41% 30.40 in 10.0 mi Calm Calm - N/A   Clear
2:47 PM 35.6 °F - 12.2 °F 38% 30.38 in 10.0 mi Calm Calm - N/A   Clear
3:47 PM 35.6 °F - 12.2 °F 38% 30.38 in 10.0 mi Calm Calm - N/A   Clear
4:47 PM 33.8 °F 29.6 °F 15.8 °F 48% 30.39 in 10.0 mi SSW 4.6 mph - N/A   Scattered Clouds
6:47 PM 28.4 °F - 19.4 °F 69% 30.40 in 10.0 mi Calm Calm - N/A   Clear
7:47 PM 28.4 °F - 21.2 °F 74% 30.40 in 10.0 mi Calm Calm - N/A   Clear
8:47 PM 28.4 °F - 21.2 °F 74% 30.42 in 10.0 mi Calm Calm - N/A   Clear
9:20 PM 30.2 °F - 21.2 °F 69% 30.41 in 10.0 mi Calm Calm - N/A   Clear
9:40 PM 30.2 °F - 19.4 °F 64% 30.41 in 10.0 mi Calm Calm - N/A   Clear
10:00 PM 28.4 °F - 19.4 °F 69% 30.41 in 10.0 mi Calm Calm - N/A   Clear
10:20 PM 26.6 °F - 19.4 °F 74% 30.41 in 10.0 mi Calm Calm - N/A   Clear
10:40 PM 28.4 °F - 19.4 °F 69% 30.41 in 10.0 mi Calm Calm - N/A   Clear
11:20 PM 28.4 °F - 21.2 °F 74% 30.41 in 10.0 mi Calm Calm - N/A   Clear
11:40 PM 24.8 °F - 21.2 °F 86% 30.41 in 10.0 mi Calm Calm - N/A   Clear